Location: Proctor
(47.8934°N, 114.3048°W)
Time: 00:46:48
(UTC+00:00)

STRAND 1 - Pass Details

Date: 07 July 2022
Orbit: 767 x 781 km, 98.4° (Epoch: 07 August)

Event Time Altitude Azimuth Distance (km) Brightness Sun altitude
Rises 04:29:11 0° 1° (N) 3,269 ? -7.3°
Reaches altitude 10° 04:32:22 10° 340° (NNW) 2,334 ? -7.7°
Maximum altitude 04:35:21 16° 304° (NW) 1,952 ? -8.0°
Drops below altitude 10° 04:38:19 10° 268° (W) 2,320 ? -8.4°
Sets 04:41:28 0° 248° (WSW) 3,239 ? -8.7°
